Location: Grieser Field
(39.7333°N, 81.7975°W)
Time: 03:45:12
(UTC-04:00)

Meteor 2-1 Rocket - Visible Passes

Search period start: 27 July 2016 00:00
Search period end: 06 August 2016 00:00
Orbit: 829 x 908 km, 81.3° (Epoch: 26 July)

Date Brightness Start Highest point End Pass type
(mag) Time Alt. Az. Time Alt. Az. Time Alt. Az.
27 Jul 7.1 04:27:27 10° E 04:28:53 11° E 04:30:18 10° ENE visible
28 Jul 7.0 04:20:34 10° E 04:22:12 11° E 04:23:49 10° ENE visible
29 Jul 7.0 04:13:44 10° ESE 04:15:31 12° E 04:17:17 10° ENE visible
29 Jul 4.2 05:52:21 10° S 05:58:00 81° W 06:03:36 10° N visible
30 Jul 6.9 04:06:54 10° ESE 04:08:50 12° E 04:10:46 10° ENE visible
30 Jul 4.2 05:45:42 10° SSW 05:51:20 80° W 05:56:55 10° N visible
31 Jul 6.9 04:00:05 10° ESE 04:02:09 12° E 04:04:13 10° ENE visible
31 Jul 4.2 05:39:02 10° SSW 05:44:40 78° W 05:50:15 10° N visible
01 Aug 6.8 03:53:16 10° ESE 03:55:28 12° E 03:57:40 10° ENE visible
01 Aug 4.2 05:32:23 10° SSW 05:38:00 76° W 05:43:34 10° N visible
02 Aug 6.8 03:46:28 10° ESE 03:48:47 13° E 03:51:06 10° ENE visible
02 Aug 4.2 05:25:44 10° SSW 05:31:20 74° W 05:36:54 10° N visible
03 Aug 6.8 03:39:40 10° ESE 03:42:06 13° E 03:44:32 10° ENE visible
03 Aug 4.2 05:19:05 10° SSW 05:24:40 73° W 05:30:13 10° N visible
04 Aug 6.7 03:32:53 10° ESE 03:35:25 13° E 03:37:57 10° ENE visible
04 Aug 4.2 05:12:45 12° SSW 05:18:01 71° W 05:23:32 10° N visible
05 Aug 6.7 03:26:06 10° ESE 03:28:44 14° E 03:31:22 10° NE visible
05 Aug 4.2 05:06:44 15° SSW 05:11:20 70° W 05:16:51 10° N visible
